Regional Weather Roundup
Issued by NWS

Home | Current Version | Previous Version | Text Only | Print | Product List | Glossary Off
Versions: 1 2 3 4 5 6 7 8 9 10 11 12 13 14 15 16 17 18 19 20 21 22 23 24 25 26 27 28 29 30 31 32 33 34 35 36 37 38 39 40 41 42 43 44 45 46 47 48 49 50

000
ASUS45 KSLC 311410
RWRUT

UTAH REGIONAL WEATHER ROUNDUP
NATIONAL WEATHER SERVICE SALT LAKE CITY UT
800 AM MDT FRI JUL 31 2015

UTZ001>011-023>025-311500-

NORTHERN UTAH

CITY           SKY/WX    TMP DP  RH WIND       PRES   REMARKS
BRIGHAM CITY   MOSUNNY   59  39  46 CALM      30.26R
HILL AFB       SUNNY     62  32  32 E20       30.27R
LOGAN          SUNNY     57  41  55 CALM      30.30R
OGDEN          SUNNY     65  34  31 S9        30.25R
PROVO AIRPORT  MOSUNNY   61  30  31 SE7       30.29R
SALT LAKE CITY MOSUNNY   67  36  31 E5        30.25R
VERNAL         SUNNY     66  31  27 CALM      30.32R
WENDOVER       SUNNY     70  36  28 CALM      30.25R
HEBER CITY     SUNNY     52  36  54 CALM      30.39R
WEST JORDAN    SUNNY     64  36  34 S5        30.27R

$$

UTZ012>022-026-027-311500-

SOUTHERN/CENTRAL UTAH

CITY           SKY/WX    TMP DP  RH WIND       PRES   REMARKS
BLANDING       CLOUDY    65  53  64 CALM      30.45R
BRYCE CANYON   PTSUNNY   59  45  59 W3        30.49R
CEDAR CITY     PTSUNNY   70  39  32 S3        30.31R
DELTA          SUNNY     68  28  22 CALM      30.27R
HANKSVILLE     SUNNY     72  37  28 CALM      30.26R
MILFORD        CLOUDY    72  23  16 SW3       30.27R
MOAB/CYNLANDS  SUNNY     76  53  44 SE5       30.25R
PRICE          MOSUNNY   69  19  15 W3        30.34R
ST GEORGE      SUNNY     81  48  32 SE8       30.14R
KANAB          CLOUDY    72  48  43 NW8       30.34R

$$

REGIONAL REPORTS     COLORADO/ARIZONA

CITY           SKY/WX    TMP DP  RH WIND       PRES   REMARKS
CRAIG, CO      SUNNY     52  38  58 CALM      30.40R
GRAND JUNCTION SUNNY     67  32  27 S3        30.29R
RIFLE          SUNNY     62  35  36 CALM      30.36R
MONTROSE       MOSUNNY   68  42  38 S6        30.38R
CORTEZ         CLOUDY    63  59  87 SW3       30.39R
PAGE, AZ       MOSUNNY   78  56  46 S7        30.24R
GRAND CANYON   PTSUNNY   63  52  67 NE3       30.41R
KINGMAN        SUNNY     78  56  46 SE10      30.15R
FLAGSTAFF      MOSUNNY   53  52  96 CALM      30.44R

$$

REGIONAL REPORTS    NEVADA/IDAHO/WYOMING

CITY           SKY/WX    TMP DP  RH WIND       PRES   REMARKS
LAS VEGAS, NV  PTSUNNY   91  53  27 N5        30.00R
ELY            MOSUNNY   57  23  26 S8        30.39R
ELKO           PTSUNNY   59  32  36 NE3       30.31R
POCATELLO, ID  SUNNY     60  36  40 E3        30.30R
BURLEY         MOSUNNY   56  44  64 NE3       30.26R
EVANSTON, WY   MOSUNNY   59  25  27 SE6       30.45R
ROCK SPRINGS   SUNNY     59  24  26 CALM      30.43R
KEMMERER       SUNNY     52  32  46 N9        30.47R

$$



USA.gov is the U.S. government's official web portal to all federal, state and local government web resources and services.